User: anonymous   Login
Location: Gipe Farm
(40.9466°N, 95.5370°W)
Time: 15:43:56
(UTC-05:00)
Language:

Cosmos 1842 - Orbit

View from above orbital plane
View from above orbital plane
View from above satellite
View from above satellite

Ground track
Ground track

The orbit data is extracted from the following two-line orbital elements,

1 17911U 87038A   16241.12146741  .00000296  00000-0  15961-4 0  9998
2 17911  82.5243 120.0632 0011723 170.5367 189.6087 15.10798277597559
Epoch (UTC): 28 August 2016 02:54:54
Eccentricity: 0.0011723
inclination: 82.5243°
perigee height: 525 km
apogee height: 542 km
right ascension of ascending node: 120.0632°
argument of perigee: 170.5367°
revolutions per day: 15.10798277
mean anomaly at epoch: 189.6087°
orbit number at epoch: 59755

The dashed part of the orbit path shows where the satellite is in the earth's shadow,  

DLR